CAPE
0 0 0 0 0 0 0 0 0 0 0 0 0 0 0 0 0 0 0 0 0 0 0 0 0 0 0 0 0 0 55 794 1761 1913 1800 1602 1504 1416 1235 1300 1162 1138 1054 869
0 0 0 0 0 0 0 0 0 0 0 0 0 0 0 0 0 0 0 0 0 0 0 0 0 0 0 0 0 0 0 685 1351 1676 1647 1616 1467 1288 1138 1069 1093 1176 1029 902
0 0 0 0 0 0 0 0 0 0 0 0 0 0 0 0 0 0 0 0 0 0 0 0 0 0 0 0 0 0 0 406 1115 1581 1623 1217 858 639 827 889 925 1022 898 836
0 0 0 0 0 0 0 0 0 0 0 0 0 0 0 0 0 0 0 0 0 0 0 0 0 0 0 0 0 0 0 461 1123 1703 1497 1184 1063 1019 904 883 826 544 532 543
0 0 0 0 0 0 0 0 0 0 0 0 0 0 0 0 0 0 0 0 0 0 0 0 0 0 0 0 0 1 8 456 948 1597 1550 1221 1216 973 685 646 455 565 383 366
0 0 0 0 0 0 0 0 0 0 0 0 0 0 0 0 0 0 0 0 0 0 0 0 0 0 0 0 0 2 248 638 1359 1627 1582 1291 1105 831 563 449 482 339 253 248
0 0 0 0 0 0 0 0 0 0 0 0 0 0 0 0 0 0 1 0 0 0 0 0 0 0 0 0 0 3 225 1373 1599 1630 1578 1200 979 677 595 467 452 205 143 161
0 0 0 0 0 0 0 0 0 0 0 0 0 0 0 0 0 0 0 0 0 0 0 2 0 0 0 0 4 1 115 1734 1706 1511 1322 953 564 606 461 387 288 203 128 93
0 0 0 0 0 0 0 0 0 1 0 0 0 0 0 0 0 0 0 0 0 0 0 1 1 0 0 4 4 8 4 1363 1501 1286 818 596 416 405 355 250 213 142 79 58
0 0 0 0 0 0 0 0 0 8 2 0 0 0 0 0 0 0 0 0 0 1 0 2 2 1 1 4 6 6 7 5 726 795 605 373 246 213 203 230 210 91 48 44
0 0 0 0 0 0 0 0 0 0 2 25 0 0 1 0 1 1 2 3 0 3 3 2 2 2 2 3 6 7 8 2 0 114 258 265 115 49 118 131 71 39 30 38
0 0 0 0 0 0 0 0 0 0 0 0 0 0 3 0 0 1 0 1 2 2 1 1 2 3 3 4 6 7 8 6 3 0 33 30 5 4 83 67 67 40 68 35
0 0 0 0 0 0 0 0 0 0 0 0 0 0 0 2 1 2 0 2 1 2 1 2 3 3 5 5 6 6 10 7 5 0 0 4 0 1 64 47 54 52 17 3
0 0 0 0 0 0 0 0 0 0 0 0 0 0 2 1 2 1 1 2 2 2 3 4 3 3 5 4 5 6 8 6 5 3 7 13 23 51 24 52 56 33 4 1
0 0 0 0 0 0 0 0 0 0 0 0 0 0 0 0 2 3 3 4 4 4 6 6 5 4 4 5 4 5 5 7 1 8 4 2 1 0 2 1 0 0 0 0
0 0 0 0 0 0 0 0 0 0 0 0 0 0 0 2 1 3 4 3 4 6 5 4 3 4 4 4 4 4 5 4 2 2 7 7 6 3 4 5 4 3 1 2
0 0 0 0 0 0 0 0 1 0 1 1 1 0 0 0 2 2 4 4 4 4 4 4 3 3 3 3 3 4 3 3 2 0 2 3 4 9 12 10 8 9 8 8
0 0 0 0 0 0 0 0 0 0 1 0 1 0 0 0 2 2 2 3 3 2 3 3 2 2 2 2 2 3 4 2 3 2 1 1 0 2 6 8 12 11 11 11
0 0 0 0 0 0 0 0 0 1 0 1 1 1 0 1 0 3 1 0 1 2 2 2 2 2 2 2 2 3 2 1 3 3 3 3 1 0 2 3 4 4 6 6
0 0 0 0 0 0 0 0 1 0 0 0 0 0 2 2 0 1 0 0 0 0 1 1 1 2 2 2 1 1 0 0 2 1 1 2 3 4 2 4 3 1 2 4
0 0 0 0 0 0 0 0 0 0 0 0 3 2 0 0 0 0 0 0 0 1 1 0 1 2 1 1 0 0 1 1 2 1 1 0 1 1 2 2 2 4 5 3
0 0 0 0 0 0 0 0 0 0 1 1 2 1 0 0 0 0 0 0 0 0 0 0 0 1 0 0 0 0 1 2 1 0 0 1 1 1 0 1 1 1 1 2
0 0 0 0 0 0 1 1 1 0 2 1 2 0 0 0 0 0 0 0 0 0 0 0 0 1 2 0 1 1 1 1 0 0 0 1 1 1 1 0 0 0 0 1
0 1 0 0 0 2 1 1 1 1 2 1 0 0 0 0 0 0 0 0 0 0 0 0 0 0 1 1 0 1 0 0 0 0 0 1 1 0 0 1 0 0 0 0
0 0 0 0 0 0 0 1 1 1 0 0 0 0 0 0 0 0 0 0 0 0 0 0 0 0 0 0 0 0 0 0 0 0 0 0 0 1 2 1 0 1 0 0
0 0 1 0 0 0 1 0 0 0 0 0 0 0 0 0 0 0 0 0 0 0 0 0 0 0 0 0 0 0 0 0 0 0 0 0 0 0 0 1 0 2 1 1
CIN
-0 -0 -0 -0 -0 -0 -0 -0 -0 -0 -0 -0 -0 -0 -0 -0 -0 -0 -0 -0 -0 -0 -0 -0 -0 -0 -0 -0 -0 -0 -250 -182 -168 -147 -150 -147 -153 -154 -170 -136 -157 -168 -162 -163
-0 -0 -0 -0 -0 -0 -0 -0 -0 -0 -0 -0 -0 -0 -0 -0 -0 -0 -0 -0 -0 -0 -0 -0 -0 -0 -0 -0 -0 -0 -0 -219 -200 -189 -199 -195 -205 -191 -204 -174 -128 -128 -154 -153
-0 -0 -0 -0 -0 -0 -0 -0 -0 -0 -0 -0 -0 -0 -0 -0 -0 -0 -0 -0 -0 -0 -0 -0 -0 -0 -0 -0 -0 -0 -0 -206 -210 -204 -189 -204 -216 -213 -197 -175 -153 -161 -166 -144
-0 -0 -0 -0 -0 -0 -0 -0 -0 -0 -0 -0 -0 -0 -0 -0 -0 -0 -0 -0 -0 -0 -0 -0 -0 -0 -0 -0 -0 -0 -0 -218 -205 -177 -173 -211 -150 -176 -217 -195 -209 -224 -224 -192
-0 -0 -0 -0 -0 -0 -0 -0 -0 -0 -0 -0 -0 -0 -0 -0 -0 -0 -0 -0 -0 -0 -0 -0 -0 -0 -0 -0 -0 -686 -435 -238 -232 -193 -175 -221 -190 -232 -267 -276 -244 -160 -218 -200
-0 -0 -0 -0 -0 -0 -0 -0 -0 -0 -0 -0 -0 -0 -0 -0 -0 -0 -0 -0 -0 -0 -0 -0 -0 -0 -0 -0 -0 -533 -424 -214 -207 -190 -171 -182 -213 -262 -289 -308 -245 -216 -237 -248
-0 -0 -0 -0 -0 -0 -0 -0 -0 -0 -0 -0 -0 -0 -0 -0 -0 -0 -0 -0 -0 -0 -0 -0 -0 -0 -0 -0 -0 -0 -404 -148 -150 -152 -120 -173 -206 -293 -285 -294 -252 -246 -274 -297
-0 -0 -0 -0 -0 -0 -0 -0 -0 -0 -0 -0 -0 -0 -0 -0 -0 -2 -0 -0 -0 -0 -0 -0 -0 -0 -0 -0 -0 -0 -520 -59 -82 -144 -142 -153 -227 -238 -265 -250 -303 -272 -273 -326
-0 -0 -0 -0 -0 -0 -0 -0 -0 -2 -0 -0 -0 -0 -0 -0 -0 -0 -0 -0 -0 -0 -0 -0 -0 -0 -0 -0 -0 -0 -0 -65 -62 -88 -131 -193 -215 -207 -238 -276 -301 -265 -284 -322
-0 -0 -0 -0 -0 -0 -0 -0 -0 -16 -7 -0 -0 -0 -0 -0 -0 -0 -0 -0 -0 -0 -0 -0 -0 -0 -0 -0 -0 -0 -0 -115 -73 -86 -129 -144 -173 -204 -239 -244 -225 -275 -322 -357
-0 -0 -0 -0 -0 -0 -0 -0 -0 -0 -8 -8 -0 -0 -17 -0 -0 -0 -0 -0 -0 -0 -0 -0 -0 -0 -0 -0 -0 -0 -0 -0 -0 -171 -119 -152 -132 -133 -169 -164 -213 -268 -322 -318
-0 -0 -0 -0 -0 -0 -0 -0 -0 -0 -0 -0 -0 -0 -0 -0 -0 -0 -0 -0 -0 -0 -0 -0 -0 -0 -0 -0 -0 -0 -0 -0 -0 -0 -136 -95 -22 -95 -74 -123 -184 -254 -225 -267
-0 -0 -0 -0 -0 -0 -0 -0 -0 -0 -0 -0 -0 -0 -2 -0 -0 -0 -0 -0 -0 -0 -0 -0 -0 -0 -0 -0 -0 -0 -0 -0 -0 -0 -0 -175 -4 -3 -41 -100 -148 -171 -225 -259
-0 -0 -0 -0 -0 -0 -0 -0 -0 -0 -0 -0 -0 -0 -0 -0 -0 -0 -0 -0 -0 -0 -0 -0 -0 -0 -0 -0 -0 -0 -0 -0 -0 -0 -50 -68 -6 -21 -41 -73 -106 -159 -267 -107
-0 -0 -0 -0 -0 -0 -0 -0 -0 -0 -0 -0 -0 -0 -0 -0 -0 -0 -0 -0 -0 -0 -0 -0 -0 -0 -0 -0 -0 -0 -0 -0 -0 -0 -0 -0 -0 -26 -27 -39 -4 -0 -0 -0
-0 -0 -0 -0 -0 -0 -0 -0 -0 -0 -0 -0 -0 -0 -0 -0 -0 -0 -0 -0 -0 -0 -0 -0 -0 -0 -0 -0 -0 -0 -0 -0 -0 -0 -0 -0 -0 -0 -0 -0 -0 -0 -0 -0
-0 -0 -0 -0 -0 -0 -0 -0 -7 -0 -0 -0 -0 -0 -0 -0 -0 -0 -0 -0 -0 -0 -0 -0 -0 -0 -0 -0 -0 -0 -0 -0 -0 -0 -0 -0 -0 -0 -0 -0 -0 -0 -0 -0
-0 -0 -0 -0 -0 -0 -0 -0 -0 -0 -0 -0 -0 -0 -0 -0 -0 -0 -0 -0 -0 -0 -0 -0 -0 -0 -0 -0 -0 -0 -0 -0 -0 -0 -0 -0 -0 -0 -0 -0 -0 -0 -0 -0
-0 -0 -1 -0 -0 -0 -0 -0 -0 -0 -0 -0 -0 -0 -0 -0 -0 -0 -0 -0 -0 -0 -0 -0 -0 -0 -0 -0 -0 -0 -0 -0 -0 -0 -0 -0 -0 -0 -0 -0 -0 -0 -0 -0
-0 -0 -0 -0 -0 -0 -0 -0 -0 -0 -0 -0 -0 -0 -0 -0 -0 -0 -0 -0 -0 -0 -0 -0 -0 -0 -0 -0 -0 -0 -0 -0 -0 -0 -0 -0 -0 -0 -0 -0 -0 -0 -0 -0
-0 -0 -0 -0 -0 -0 -0 -0 -0 -0 -0 -0 -0 -0 -0 -0 -0 -0 -0 -0 -0 -0 -0 -0 -0 -0 -0 -0 -0 -0 -0 -0 -0 -0 -0 -0 -0 -0 -0 -0 -0 -0 -0 -0
-0 -0 -0 -0 -0 -0 -0 -0 -0 -0 -0 -0 -0 -0 -0 -0 -0 -0 -0 -0 -0 -0 -0 -0 -0 -0 -0 -0 -0 -0 -0 -0 -0 -0 -0 -0 -0 -0 -0 -0 -0 -0 -0 -0
-0 -0 -0 -0 -0 -0 -0 -0 -0 -0 -0 -0 -0 -0 -0 -0 -0 -0 -0 -0 -0 -0 -0 -0 -0 -0 -0 -0 -0 -0 -0 -0 -0 -0 -0 -0 -0 -0 -0 -0 -0 -0 -0 -0
-0 -0 -0 -0 -0 -0 -0 -0 -0 -0 -0 -0 -0 -0 -0 -0 -0 -0 -0 -0 -0 -0 -0 -0 -0 -0 -0 -0 -0 -0 -0 -0 -0 -0 -0 -0 -0 -0 -0 -0 -0 -0 -0 -0
-0 -0 -0 -0 -0 -0 -0 -0 -0 -0 -0 -0 -0 -0 -0 -0 -0 -0 -0 -0 -0 -0 -0 -0 -0 -0 -0 -0 -0 -0 -0 -0 -0 -0 -0 -0 -0 -0 -0 -0 -0 -0 -0 -0
-0 -0 -0 -0 -0 -0 -0 -0 -0 -0 -0 -0 -0 -0 -0 -0 -0 -0 -0 -0 -0 -0 -0 -0 -0 -0 -0 -0 -0 -0 -0 -0 -0 -0 -0 -0 -0 -0 -0 -0 -0 -0 -0 -0
Wind_Speed
18 20 22 23 23 26 30 33 38 36 34 35 40 51 44 41 38 42 44 45 47 47 50 49 48 48 45 40 34 29 29 29 29 29 28 25 23 21 20 20 18 15 13 9
21 24 22 23 24 25 27 31 35 35 32 32 37 47 45 39 40 40 43 44 44 45 47 46 46 47 48 45 36 30 27 27 28 27 28 31 25 25 23 22 22 17 14 11
23 20 17 20 23 26 29 29 35 39 38 33 37 49 39 37 40 42 39 42 42 40 40 38 38 36 36 39 40 34 29 25 26 28 27 28 25 25 24 22 20 17 14 12
22 22 22 23 25 26 31 30 36 40 39 42 26 49 50 42 36 42 46 37 33 33 33 34 35 37 37 38 39 39 30 27 26 26 28 27 27 26 25 22 21 19 15 13
20 20 23 26 27 26 33 29 32 35 36 38 37 34 43 46 50 41 33 30 31 32 33 34 35 34 35 35 39 40 39 34 29 26 26 28 29 28 26 23 20 19 16 12
22 23 24 25 27 28 29 31 30 28 30 41 40 35 43 43 37 32 31 32 33 35 35 34 33 34 34 34 35 37 37 30 27 26 27 29 28 26 24 22 20 18 15 13
26 25 20 23 25 22 28 27 35 36 34 40 34 36 31 34 29 26 30 33 35 36 36 35 35 36 34 32 33 33 34 31 25 22 22 31 30 27 25 22 20 18 15 14
26 27 21 22 22 28 26 25 30 38 37 35 32 34 31 24 25 24 29 33 37 37 36 36 32 33 31 33 32 31 32 32 32 29 29 28 30 29 26 23 19 17 16 16
26 26 21 19 23 26 27 29 27 32 34 38 32 29 25 22 25 26 30 34 36 35 34 32 32 31 31 32 31 29 30 32 28 27 30 28 26 25 24 20 17 16 15 15
22 33 24 27 31 26 25 29 31 27 34 36 31 30 25 25 30 33 33 35 30 32 30 28 27 27 29 31 30 27 24 22 24 24 24 24 26 26 22 19 17 16 15 14
23 25 29 29 27 33 33 31 28 27 27 32 35 30 22 27 32 33 30 31 28 28 25 25 26 26 27 27 25 24 21 20 21 23 21 21 23 26 21 19 17 16 14 14
22 25 33 33 30 27 25 27 27 31 32 29 29 31 23 25 25 28 32 26 25 26 26 25 25 27 27 26 25 23 21 22 24 25 19 13 16 18 20 18 16 14 15 12
19 25 35 35 23 24 26 26 25 27 29 31 30 24 23 26 25 24 22 22 24 25 25 25 25 25 26 25 24 23 22 22 23 24 21 17 16 22 27 16 13 12 12 12
19 23 26 33 32 31 32 31 31 28 33 35 39 41 32 27 25 24 22 21 24 24 24 25 26 26 26 25 23 23 22 22 21 20 17 9 7 7 10 11 11 12 13 12
20 28 26 27 29 29 32 32 33 32 38 40 42 39 31 25 23 20 19 21 23 23 24 25 26 26 25 25 24 23 22 21 20 18 16 16 11 7 6 9 10 12 12 12
20 28 25 29 27 28 29 30 40 42 41 42 42 39 24 22 21 17 19 20 22 23 25 24 26 26 25 24 24 22 21 20 18 16 17 15 11 8 7 7 10 11 11 10
20 22 25 30 24 30 41 36 40 35 34 36 36 27 18 18 18 18 20 20 21 22 22 24 24 26 27 24 23 21 20 18 17 16 14 13 12 10 8 9 8 11 11 12
17 16 16 24 26 25 20 22 13 16 17 16 13 12 13 12 12 16 18 18 20 22 23 24 25 25 26 24 23 20 19 18 16 14 14 13 9 9 8 6 8 10 11 14
5 5 12 14 13 22 23 17 18 19 12 10 11 10 7 6 10 16 17 18 19 20 21 23 24 25 25 24 24 21 19 18 16 16 17 13 14 8 6 6 9 10 11 12
8 13 19 20 17 17 16 19 18 21 14 11 12 12 6 9 14 15 15 16 18 20 22 23 24 25 26 25 25 23 21 20 18 18 17 16 16 13 12 12 10 10 11 13
13 25 28 26 22 19 17 17 17 19 15 11 11 11 10 10 11 9 13 14 17 19 21 22 24 26 26 25 24 24 22 20 19 18 19 19 18 16 14 15 14 11 12 14
19 20 19 23 22 17 14 9 10 6 7 9 9 9 11 9 8 11 12 14 16 18 20 22 23 25 25 24 24 23 23 20 20 19 19 18 18 16 17 17 15 16 15 14
15 14 15 13 13 11 8 6 7 8 10 10 11 12 12 12 13 14 15 16 17 19 21 22 23 24 24 24 24 23 23 23 22 22 19 20 19 19 18 18 16 16 17 16
10 10 8 12 8 7 9 11 12 11 12 13 14 14 13 16 15 16 17 17 18 19 20 21 22 24 23 24 24 23 23 23 22 22 20 20 21 19 21 20 18 17 17 16
11 12 9 8 10 9 10 9 8 9 9 8 8 10 13 14 14 14 15 16 17 18 19 19 21 22 23 23 23 23 22 22 22 22 21 21 21 20 20 21 19 19 19 18
14 14 14 15 15 10 12 11 11 11 10 11 11 12 13 15 17 16 16 16 16 17 18 19 20 21 22 23 23 23 23 22 21 21 22 22 21 20 20 20 20 21 21 20
Wind_Direction
300 290 290 293 290 294 296 295 295 297 301 299 295 285 297 302 303 301 300 301 298 294 287 284 282 281 280 281 281 276 261 253 251 251 248 252 248 249 251 247 244 242 247 239
297 289 293 298 298 297 298 297 296 298 302 300 300 295 300 305 304 305 304 303 302 300 296 292 288 283 279 276 276 273 265 255 247 248 248 253 248 252 252 251 250 247 245 238
287 299 313 301 298 296 294 297 296 295 302 305 304 296 305 309 308 307 308 306 306 308 306 304 295 293 291 279 273 270 265 257 247 247 250 253 249 253 251 250 247 242 239 244
296 299 298 299 296 296 296 299 297 295 298 298 310 298 300 308 311 310 310 313 316 314 314 313 303 292 291 284 275 269 262 256 253 246 244 242 237 240 246 246 248 250 249 239
298 301 301 300 300 302 297 302 300 302 302 304 303 304 303 308 304 311 318 321 321 315 309 308 307 302 297 290 276 271 262 256 250 243 245 241 242 242 247 245 249 253 254 230
297 303 302 301 304 306 306 303 304 307 306 297 302 305 306 309 312 317 321 321 318 307 304 302 302 300 294 293 284 273 264 257 246 243 248 240 238 237 241 241 242 248 244 240
300 301 310 315 307 316 317 310 301 299 297 297 310 307 311 318 324 325 322 316 311 311 303 293 299 290 293 297 288 271 264 254 246 239 244 242 239 238 237 240 243 247 240 244
298 296 311 324 320 313 312 312 301 298 300 303 310 304 312 327 332 329 319 311 310 310 303 293 295 286 296 298 286 282 269 252 244 247 246 244 242 243 243 243 245 244 240 251
301 299 313 325 323 320 310 306 312 304 300 299 302 306 314 324 325 317 313 318 311 307 305 295 294 291 294 292 288 282 264 252 253 249 247 248 246 242 240 241 247 245 245 254
310 299 310 311 314 315 312 312 303 304 299 296 301 304 306 317 307 303 313 322 308 313 307 305 297 293 296 295 291 283 280 267 258 253 249 251 247 244 245 249 246 242 243 252
316 308 307 314 314 309 306 303 302 300 296 303 298 302 312 307 300 299 311 320 314 311 306 303 303 301 302 296 295 290 288 275 270 263 256 252 256 251 253 252 247 241 241 249
318 312 307 310 316 319 312 308 303 291 289 292 303 302 305 300 301 312 312 316 317 318 311 307 304 309 309 304 300 297 291 283 276 272 271 265 258 263 253 245 246 238 242 247
325 317 309 312 319 325 321 316 309 300 291 277 283 293 301 290 297 310 317 315 322 318 313 312 315 314 311 304 302 302 298 292 286 282 282 286 286 272 232 230 234 233 244 256
329 316 310 305 308 313 309 309 305 296 280 271 263 261 280 276 289 300 303 311 320 323 321 320 319 319 314 312 303 304 304 300 295 299 293 312 327 256 235 228 227 240 253 259
322 311 310 308 309 308 304 303 300 290 270 256 249 254 269 276 284 312 311 312 322 324 326 326 323 320 319 318 315 313 310 307 305 302 301 294 297 273 223 235 240 247 256 262
325 313 314 309 310 307 305 300 286 262 249 237 242 246 269 297 295 326 323 318 324 323 332 328 329 328 326 322 320 318 318 319 320 312 305 296 287 260 256 258 246 251 260 263
312 314 316 309 313 313 289 294 255 247 236 231 239 250 280 284 293 308 315 324 328 327 325 331 330 335 336 328 327 327 328 330 332 328 318 315 295 274 270 266 261 264 272 277
300 308 314 314 316 304 302 288 269 225 244 257 257 272 291 303 326 332 339 327 337 341 339 339 339 341 345 343 341 340 340 343 339 334 330 331 302 309 300 294 281 281 283 281
235 299 326 325 307 253 254 270 233 221 236 270 274 289 322 333 332 338 343 346 352 346 343 347 348 348 351 349 352 352 352 348 342 344 340 319 331 330 324 325 307 299 295 294
83 130 152 213 249 262 256 277 243 217 229 290 309 286 318 300 299 311 334 344 351 357 357 357 355 357 0 356 359 360 358 355 348 340 342 336 336 334 344 330 325 324 320 323
64 191 194 206 224 230 276 267 224 228 242 313 308 308 297 302 308 334 341 346 356 354 357 0 4 6 2 358 1 4 0 359 354 352 354 351 349 341 341 335 337 333 333 350
213 210 223 214 210 226 303 232 242 265 312 335 332 348 22 15 346 351 349 351 356 0 359 359 6 7 2 2 5 8 5 356 360 1 2 360 0 357 355 356 345 354 351 351
233 252 248 242 230 247 282 314 322 332 358 354 9 17 26 23 23 21 14 10 9 9 9 9 10 11 7 5 9 10 6 7 7 11 7 6 2 6 3 2 353 352 358 1
272 289 252 228 248 278 305 329 344 351 3 19 34 34 30 42 31 27 26 23 19 14 12 14 15 13 7 3 5 9 11 12 12 10 5 7 10 6 11 10 2 1 357 355
277 281 267 257 265 289 305 306 300 342 351 359 353 7 25 26 16 15 15 13 15 13 10 8 11 12 10 6 5 1 2 7 10 9 7 10 9 6 8 12 4 5 5 358
286 288 278 268 288 312 300 314 335 358 1 7 13 17 12 32 40 29 20 15 11 6 2 6 5 5 6 6 6 2 3 4 4 5 6 7 4 2 3 7 11 13 11 7